Time,TemperatureF,DewpointF,PressureIn,WindDirection,WindDirectionDegrees,WindSpeedMPH,WindSpeedGustMPH,Humidity,HourlyPrecipIn,Conditions,Clouds,dailyrainin,SoftwareType,DateUTC
2013-10-05 00:13:00,69.0,-99.9,-100.00,SE,146,0.0,2.0,-999,0.00,,,1.72,,2013-10-05 05:13:00,
2013-10-05 00:22:00,69.0,-99.9,-100.00,SE,146,0.0,2.0,-999,0.00,,,1.72,,2013-10-05 05:22:00,
2013-10-05 00:30:00,69.0,-99.9,-100.00,South,190,0.0,1.0,-999,0.00,,,1.62,,2013-10-05 05:30:00,
2013-10-05 00:43:00,69.0,-99.9,-100.00,SSE,159,1.0,7.0,-999,0.00,,,1.72,,2013-10-05 05:43:00,
2013-10-05 00:52:00,69.0,-99.9,-100.00,SSE,159,1.0,7.0,-999,0.00,,,1.72,,2013-10-05 05:52:00,
2013-10-05 01:12:00,69.0,-99.9,-100.00,South,190,0.0,1.0,-999,0.00,,,1.62,,2013-10-05 06:12:00,
2013-10-05 01:22:00,69.0,-99.9,-100.00,South,190,0.0,1.0,-999,0.00,,,1.62,,2013-10-05 06:22:00,
2013-10-05 02:12:00,69.0,-99.9,-100.00,SW,235,0.0,1.0,-999,0.00,,,1.45,,2013-10-05 07:12:00,
2013-10-05 02:22:00,69.0,-99.9,-100.00,SW,235,0.0,1.0,-999,0.00,,,1.45,,2013-10-05 07:22:00,
2013-10-05 02:42:00,68.0,-99.9,-100.00,SSE,156,0.0,1.0,-999,0.00,,,1.27,,2013-10-05 07:42:00,
2013-10-05 03:12:00,68.0,-99.9,-100.00,SSE,150,0.0,1.0,-999,0.00,,,1.27,,2013-10-05 08:12:00,
2013-10-05 03:23:00,68.0,-99.9,-100.00,SSE,150,0.0,1.0,-999,0.00,,,1.27,,2013-10-05 08:23:00,
2013-10-05 03:42:00,67.0,-99.9,-100.00,SSE,152,0.0,1.0,-999,0.00,,,1.27,,2013-10-05 08:42:00,
2013-10-05 03:52:00,67.0,-99.9,-100.00,SSE,152,0.0,1.0,-999,0.00,,,1.27,,2013-10-05 08:52:00,
2013-10-05 04:12:00,66.0,-99.9,-100.00,West,263,0.0,0.0,-999,0.00,,,1.27,,2013-10-05 09:12:00,
2013-10-05 04:22:00,66.0,-99.9,-100.00,West,263,0.0,0.0,-999,0.00,,,1.27,,2013-10-05 09:22:00,
2013-10-05 04:43:00,67.0,-99.9,-100.00,SW,231,1.0,2.0,-999,0.00,,,1.27,,2013-10-05 09:43:00,
2013-10-05 04:54:00,67.0,-99.9,-100.00,SW,231,1.0,2.0,-999,0.00,,,1.27,,2013-10-05 09:54:00,
2013-10-05 05:12:00,67.0,-99.9,-100.00,WSW,253,0.0,0.0,-999,0.00,,,1.27,,2013-10-05 10:12:00,
2013-10-05 05:23:00,67.0,-99.9,-100.00,WSW,253,0.0,0.0,-999,0.00,,,1.27,,2013-10-05 10:23:00,
2013-10-05 05:43:00,66.0,-99.9,-100.00,WSW,251,0.0,0.0,-999,0.00,,,1.26,,2013-10-05 10:43:00,
2013-10-05 05:54:00,66.0,-99.9,-100.00,WSW,251,0.0,0.0,-999,0.00,,,1.26,,2013-10-05 10:54:00,
2013-10-05 06:12:00,66.0,-99.9,-100.00,SW,235,2.0,4.0,-999,0.00,,,1.19,,2013-10-05 11:12:00,
2013-10-05 06:22:00,66.0,-99.9,-100.00,SW,235,2.0,4.0,-999,0.00,,,1.19,,2013-10-05 11:22:00,
2013-10-05 06:43:00,66.0,-99.9,-100.00,SW,230,0.0,0.0,-999,0.00,,,1.16,,2013-10-05 11:43:00,
2013-10-05 06:52:00,66.0,-99.9,-100.00,SW,230,0.0,0.0,-999,0.00,,,1.16,,2013-10-05 11:52:00,
2013-10-05 07:12:00,66.0,-99.9,-100.00,WSW,244,0.0,1.0,-999,0.00,,,1.16,,2013-10-05 12:12:00,
2013-10-05 07:22:00,66.0,-99.9,-100.00,WSW,244,0.0,1.0,-999,0.00,,,1.16,,2013-10-05 12:22:00,
2013-10-05 07:42:00,66.0,-99.9,-100.00,ESE,120,0.0,1.0,-999,0.00,,,1.16,,2013-10-05 12:42:00,
2013-10-05 07:53:00,66.0,-99.9,-100.00,ESE,120,0.0,1.0,-999,0.00,,,1.16,,2013-10-05 12:53:00,
2013-10-05 08:00:00,67.0,-99.9,-100.00,NW,305,0.0,0.0,-999,0.00,,,1.15,,2013-10-05 13:00:00,
2013-10-05 08:12:00,67.0,-99.9,-100.00,SSE,154,1.0,1.0,-999,0.00,,,1.15,,2013-10-05 13:12:00,
2013-10-05 08:22:00,67.0,-99.9,-100.00,SSE,154,1.0,1.0,-999,0.00,,,1.15,,2013-10-05 13:22:00,
2013-10-05 08:42:00,67.0,-99.9,-100.00,NW,305,0.0,0.0,-999,0.00,,,1.15,,2013-10-05 13:42:00,
2013-10-05 08:52:00,67.0,-99.9,-100.00,NW,305,0.0,0.0,-999,0.00,,,1.15,,2013-10-05 13:52:00,
2013-10-05 09:22:00,68.0,-99.9,-100.00,SE,142,1.0,2.0,-999,0.00,,,1.15,,2013-10-05 14:22:00,
2013-10-05 09:42:00,70.0,-99.9,-100.00,South,181,0.0,2.0,-999,0.00,,,1.15,,2013-10-05 14:42:00,
2013-10-05 09:52:00,70.0,-99.9,-100.00,South,181,0.0,2.0,-999,0.00,,,1.15,,2013-10-05 14:52:00,
2013-10-05 10:12:00,70.0,-99.9,-100.00,SSE,159,1.0,5.0,-999,0.00,,,1.15,,2013-10-05 15:12:00,
2013-10-05 10:22:00,70.0,-99.9,-100.00,SSE,159,1.0,5.0,-999,0.00,,,1.15,,2013-10-05 15:22:00,
2013-10-05 10:44:00,71.0,-99.9,-100.00,SSE,157,1.0,4.0,-999,0.00,,,1.15,,2013-10-05 15:44:00,
2013-10-05 10:54:00,71.0,-99.9,-100.00,SSE,157,1.0,4.0,-999,0.00,,,1.15,,2013-10-05 15:54:00,
2013-10-05 11:13:00,70.0,-99.9,-100.00,SSE,147,2.0,5.0,-999,0.04,,,1.19,,2013-10-05 16:13:00,
2013-10-05 11:24:00,70.0,-99.9,-100.00,SSE,147,2.0,5.0,-999,0.04,,,1.19,,2013-10-05 16:24:00,
2013-10-05 11:43:00,70.0,-99.9,-100.00,SSE,150,3.0,5.0,-999,0.06,,,1.21,,2013-10-05 16:43:00,
2013-10-05 11:53:00,70.0,-99.9,-100.00,SSE,150,3.0,5.0,-999,0.06,,,1.21,,2013-10-05 16:53:00,
2013-10-05 12:12:00,70.0,-99.9,-100.00,SSE,157,1.0,4.0,-999,0.02,,,1.16,,2013-10-05 17:12:00,
2013-10-05 12:22:00,70.0,-99.9,-100.00,SSE,157,1.0,4.0,-999,0.02,,,1.16,,2013-10-05 17:22:00,
2013-10-05 12:42:00,71.0,-99.9,-100.00,SE,131,1.0,3.0,-999,0.00,,,0.98,,2013-10-05 17:42:00,
2013-10-05 12:53:00,71.0,-99.9,-100.00,SE,131,1.0,3.0,-999,0.00,,,0.98,,2013-10-05 17:53:00,
2013-10-05 13:12:00,70.0,-99.9,-100.00,SSE,152,2.0,4.0,-999,0.00,,,0.69,,2013-10-05 18:12:00,
2013-10-05 13:22:00,70.0,-99.9,-100.00,SSE,152,2.0,4.0,-999,0.00,,,0.69,,2013-10-05 18:22:00,
2013-10-05 13:42:00,72.0,-99.9,-100.00,SSW,204,0.0,1.0,-999,0.00,,,0.68,,2013-10-05 18:42:00,
2013-10-05 13:52:00,72.0,-99.9,-100.00,SSW,204,0.0,1.0,-999,0.00,,,0.68,,2013-10-05 18:52:00,
2013-10-05 14:11:00,72.0,-99.9,-100.00,SSE,167,1.0,5.0,-999,0.00,,,0.68,,2013-10-05 19:11:00,
2013-10-05 14:22:00,72.0,-99.9,-100.00,SSE,167,1.0,5.0,-999,0.00,,,0.68,,2013-10-05 19:22:00,
2013-10-05 14:42:00,73.0,-99.9,-100.00,SE,145,0.0,1.0,-999,0.00,,,0.68,,2013-10-05 19:42:00,
2013-10-05 14:52:00,73.0,-99.9,-100.00,SE,145,0.0,1.0,-999,0.00,,,0.68,,2013-10-05 19:52:00,
2013-10-05 15:11:00,74.0,-99.9,-100.00,South,173,1.0,2.0,-999,0.00,,,0.68,,2013-10-05 20:11:00,
2013-10-05 15:22:00,74.0,-99.9,-100.00,South,173,1.0,2.0,-999,0.00,,,0.68,,2013-10-05 20:22:00,
2013-10-05 15:42:00,74.0,-99.9,-100.00,SSW,203,1.0,3.0,-999,0.00,,,0.68,,2013-10-05 20:42:00,
2013-10-05 15:52:00,74.0,-99.9,-100.00,SSW,203,1.0,3.0,-999,0.00,,,0.68,,2013-10-05 20:52:00,
2013-10-05 16:12:00,74.0,-99.9,-100.00,South,181,1.0,5.0,-999,0.00,,,0.68,,2013-10-05 21:12:00,
2013-10-05 16:22:00,74.0,-99.9,-100.00,South,181,1.0,5.0,-999,0.00,,,0.68,,2013-10-05 21:22:00,
2013-10-05 16:44:00,73.0,-99.9,-100.00,SW,216,2.0,6.0,-999,0.00,,,0.68,,2013-10-05 21:44:00,
2013-10-05 16:54:00,73.0,-99.9,-100.00,SW,216,2.0,6.0,-999,0.00,,,0.68,,2013-10-05 21:54:00,
2013-10-05 17:13:00,72.0,-99.9,-100.00,SW,217,1.0,4.0,-999,0.00,,,0.28,,2013-10-05 22:13:00,
2013-10-05 17:24:00,72.0,-99.9,-100.00,SW,217,1.0,4.0,-999,0.00,,,0.28,,2013-10-05 22:24:00,
2013-10-05 17:43:00,70.0,-99.9,-100.00,SSE,160,1.0,5.0,-999,0.00,,,0.06,,2013-10-05 22:43:00,
2013-10-05 17:54:00,70.0,-99.9,-100.00,SSE,160,1.0,5.0,-999,0.00,,,0.06,,2013-10-05 22:54:00,
2013-10-05 18:13:00,69.0,-99.9,-100.00,SSE,167,1.0,3.0,-999,0.00,,,0.06,,2013-10-05 23:13:00,
2013-10-05 18:22:00,69.0,-99.9,-100.00,SSE,167,1.0,3.0,-999,0.00,,,0.06,,2013-10-05 23:22:00,
2013-10-05 18:43:00,67.0,-99.9,-100.00,SSW,200,1.0,4.0,-999,0.00,,,0.06,,2013-10-05 23:43:00,
2013-10-05 18:53:00,67.0,-99.9,-100.00,SSW,200,1.0,4.0,-999,0.00,,,0.06,,2013-10-05 23:53:00,
2013-10-05 19:12:00,66.0,-99.9,-100.00,SSW,197,2.0,4.0,-999,0.00,,,0.06,,2013-10-06 00:12:00,
2013-10-05 19:23:00,66.0,-99.9,-100.00,SSW,197,2.0,4.0,-999,0.00,,,0.06,,2013-10-06 00:23:00,
2013-10-05 19:43:00,64.0,-99.9,-100.00,South,173,2.0,3.0,-999,0.00,,,0.06,,2013-10-06 00:43:00,
2013-10-05 19:53:00,64.0,-99.9,-100.00,South,173,2.0,3.0,-999,0.00,,,0.06,,2013-10-06 00:53:00,
2013-10-05 20:11:00,62.0,-99.9,-100.00,SSW,212,1.0,4.0,-999,0.00,,,0.06,,2013-10-06 01:11:00,
2013-10-05 20:22:00,62.0,-99.9,-100.00,SSW,212,1.0,4.0,-999,0.00,,,0.06,,2013-10-06 01:22:00,
2013-10-05 20:42:00,61.0,-99.9,-100.00,SSE,154,1.0,4.0,-999,0.00,,,0.06,,2013-10-06 01:42:00,
2013-10-05 20:52:00,61.0,-99.9,-100.00,SSE,154,1.0,4.0,-999,0.00,,,0.06,,2013-10-06 01:52:00,
2013-10-05 21:12:00,61.0,-99.9,-100.00,South,170,1.0,2.0,-999,0.00,,,0.06,,2013-10-06 02:12:00,
2013-10-05 21:22:00,61.0,-99.9,-100.00,South,170,1.0,2.0,-999,0.00,,,0.06,,2013-10-06 02:22:00,
2013-10-05 21:42:00,60.0,-99.9,-100.00,SW,228,1.0,5.0,-999,0.00,,,0.06,,2013-10-06 02:42:00,
2013-10-05 21:53:00,60.0,-99.9,-100.00,SW,228,1.0,5.0,-999,0.00,,,0.06,,2013-10-06 02:53:00,
2013-10-05 22:12:00,58.0,-99.9,-100.00,SSW,213,1.0,3.0,-999,0.00,,,0.06,,2013-10-06 03:12:00,
2013-10-05 22:22:00,58.0,-99.9,-100.00,SSW,213,1.0,3.0,-999,0.00,,,0.06,,2013-10-06 03:22:00,
2013-10-05 22:45:00,56.0,-99.9,-100.00,SSE,160,1.0,2.0,-999,0.00,,,0.06,,2013-10-06 03:45:00,
2013-10-05 22:54:00,56.0,-99.9,-100.00,SSE,160,1.0,2.0,-999,0.00,,,0.06,,2013-10-06 03:54:00,
2013-10-05 23:14:00,54.0,-99.9,-100.00,SW,228,0.0,2.0,-999,0.00,,,0.06,,2013-10-06 04:14:00,
2013-10-05 23:24:00,54.0,-99.9,-100.00,SW,228,0.0,2.0,-999,0.00,,,0.06,,2013-10-06 04:24:00,
2013-10-05 23:44:00,52.0,-99.9,-100.00,South,179,0.0,0.0,-999,0.00,,,0.06,,2013-10-06 04:44:00,
2013-10-05 23:54:00,52.0,-99.9,-100.00,South,179,0.0,0.0,-999,0.00,,,0.06,,2013-10-06 04:54:00,